Location: Cabrera Baja
(40.4089°N, 4.3354°W)
Time: 03:19:38
(UTC+00:00)

SL-16 R/B - Pass Details

Date: 14 July 2020
Orbit: 985 x 1006 km, 99.5° (Epoch: 03 August)

Event Time Altitude Azimuth Distance (km) Brightness Sun altitude
Exits shadow 03:42:07 13° 253° (WSW) 2,560 4.2 -12.7°
Maximum altitude 03:43:45 14° 271° (W) 2,478 4.2 -12.4°
Drops below altitude 10° 03:46:55 10° 301° (WNW) 2,782 4.7 -12.0°
Sets 03:50:51 0° 326° (NW) 3,741 5.7 -11.4°
